Change the Weather History Date:

Thursday, December 26, 2013

  Actual Average Record
Temperature  
Mean Temperature 28 °F -  
Max Temperature 30 °F 35 °F 55 °F (2008)
Min Temperature 26 °F 24 °F 10 °F (2000)
Degree Days  
Heating Degree Days 37    
Moisture  
Dew Point 22 °F    
Average Humidity 77    
Maximum Humidity 93    
Minimum Humidity 63    
Precipitation  
Precipitation 0.00 in - - ()
Sea Level Pressure  
Sea Level Pressure 30.20 in    
Wind  
Wind Speed 15 mph (SW)    
Max Wind Speed 31 mph    
Max Gust Speed 38 mph    
Visibility 7 miles    
Events Fog , Snow    
Averages and records for this station are not official NWS values.
T = Trace of Precipitation, MM = Missing Value Source: NWS Daily Summary

Daily Weather History Graph

Daily Weather History Graph

Search for Another Location

Airport or City:

Trip Planner

Search our weather history database for the weather conditions in past years. The results will help you decide how hot, cold, wet, or windy it might be!

Date:

Astronomy

Dec. 26, 2013 Rise Set
Actual Time 7:52 AM EST 5:03 PM EST
Civil Twilight 7:20 AM EST 5:34 PM EST
Nautical Twilight 6:45 AM EST 6:09 PM EST
Astronomical Twilight 6:11 AM EST 6:43 PM EST
Moon 1:15 AM EST (12/26) 12:40 PM EST (12/26)
Length of Visible Light 10h 13m
Length of Day
9h 11m
Last Quarter, 38% of the Moon is Illuminated
Dec 26
Last Quarter
Jan 1
New
Jan 7
First Quarter
Jan 15
Full
Jan 24
Last Quarter

Hourly Weather History & Observations

Time (EST) Temp. Windchill Dew Point Humidity Pressure Visibility Wind Dir Wind Speed Gust Speed Precip Events Conditions
12:53 AM 28.9 °F 21.9 °F 19.0 °F 67% 30.16 in 9.0 mi South 6.9 mph - N/A   Overcast
1:53 AM 28.9 °F 20.4 °F 19.9 °F 69% 30.13 in 9.0 mi SW 9.2 mph - N/A   Overcast
2:53 AM 28.9 °F 20.4 °F 23.0 °F 78% 30.13 in 9.0 mi SW 9.2 mph - N/A   Overcast
3:53 AM 28.9 °F 19.2 °F 24.1 °F 82% 30.12 in 8.0 mi SW 11.5 mph 19.6 mph N/A   Overcast
4:37 AM 28.4 °F 19.1 °F 24.8 °F 86% 30.07 in 8.0 mi South 10.4 mph - N/A   Overcast
4:53 AM 28.9 °F 19.8 °F 24.1 °F 82% 30.09 in 7.0 mi South 10.4 mph - N/A   Overcast
5:29 AM 30.2 °F 20.8 °F 24.8 °F 80% 30.07 in 9.0 mi SSW 11.5 mph 21.9 mph N/A   Overcast
5:53 AM 30.0 °F 20.0 °F 24.1 °F 79% 30.10 in 9.0 mi SSW 12.7 mph 20.7 mph N/A   Overcast
6:53 AM 30.0 °F 19.1 °F 25.0 °F 82% 30.11 in 5.0 mi SSW 15.0 mph 21.9 mph N/A   Haze
7:53 AM 30.0 °F 19.5 °F 26.1 °F 85% 30.13 in 3.0 mi SW 13.8 mph - N/A   Overcast
8:53 AM 30.9 °F 18.7 °F 27.0 °F 85% 30.15 in 1.8 mi WSW 19.6 mph 27.6 mph N/A   Overcast
9:01 AM 30.2 °F 17.4 °F 26.6 °F 86% 30.13 in 3.0 mi WSW 20.7 mph 26.5 mph N/A   Overcast
9:10 AM 30.2 °F 15.2 °F 26.6 °F 86% 30.14 in 1.5 mi WSW 29.9 mph 38.0 mph N/A   Haze
9:17 AM 28.4 °F 12.5 °F 26.6 °F 93% 30.14 in 0.2 mi West 31.1 mph 38.0 mph N/A Fog Light Freezing Fog
9:19 AM 28.4 °F 13.5 °F 26.6 °F 93% 30.15 in 0.2 mi West 26.5 mph 38.0 mph N/A Fog Light Freezing Fog
9:31 AM 28.4 °F 14.4 °F 26.6 °F 93% 30.15 in 0.2 mi West 23.0 mph 31.1 mph N/A Fog Light Freezing Fog
9:41 AM 28.4 °F 13.3 °F 26.6 °F 93% 30.16 in 4.0 mi WSW 27.6 mph 33.4 mph N/A   Overcast
9:53 AM 30.0 °F 16.6 °F 24.1 °F 79% 30.19 in 4.0 mi WSW 23.0 mph 31.1 mph 0.00 in Snow Light Snow
10:09 AM 30.2 °F 17.8 °F 24.8 °F 80% 30.18 in 6.0 mi WSW 19.6 mph - 0.00 in Snow Light Snow
10:53 AM 30.0 °F 16.0 °F 21.9 °F 72% 30.22 in 7.0 mi WSW 25.3 mph - 0.00 in   Mostly Cloudy
11:53 AM 30.0 °F 17.9 °F 19.9 °F 66% 30.22 in 10.0 mi WSW 18.4 mph - N/A   Mostly Cloudy
12:53 PM 30.0 °F 17.2 °F 19.9 °F 66% 30.22 in 10.0 mi WSW 20.7 mph - N/A   Mostly Cloudy
1:53 PM 30.0 °F 16.6 °F 21.9 °F 72% 30.24 in 9.0 mi West 23.0 mph 28.8 mph N/A   Overcast
2:53 PM 28.9 °F 15.4 °F 19.9 °F 69% 30.26 in 7.0 mi West 21.9 mph 26.5 mph N/A   Overcast
3:16 PM 28.4 °F 15.1 °F 21.2 °F 74% 30.24 in 9.0 mi West 20.7 mph - N/A   Overcast
3:28 PM 28.4 °F 15.4 °F 21.2 °F 74% 30.24 in 9.0 mi WSW 19.6 mph - N/A   Overcast
3:53 PM 28.0 °F 14.6 °F 21.0 °F 75% 30.27 in 9.0 mi West 20.7 mph - N/A   Overcast
4:53 PM 28.0 °F 14.9 °F 17.1 °F 63% 30.30 in 9.0 mi WSW 19.6 mph - N/A   Overcast
5:53 PM 28.0 °F 15.3 °F 19.0 °F 69% 30.32 in 9.0 mi WSW 18.4 mph - N/A   Overcast
6:53 PM 27.0 °F 14.3 °F 17.1 °F 66% 30.34 in 9.0 mi WSW 17.3 mph - N/A   Mostly Cloudy
7:53 PM 26.1 °F 16.8 °F 18.0 °F 71% 30.34 in 9.0 mi SW 9.2 mph - N/A   Mostly Cloudy
8:53 PM 26.1 °F 16.2 °F 17.1 °F 69% 30.34 in 9.0 mi SSW 10.4 mph - N/A   Overcast
9:53 PM 27.0 °F 18.0 °F 18.0 °F 69% 30.33 in 9.0 mi South 9.2 mph - N/A   Overcast
10:53 PM 28.0 °F 20.0 °F 18.0 °F 66% 30.32 in 9.0 mi SW 8.1 mph - N/A   Overcast
11:53 PM 28.9 °F 22.8 °F 18.0 °F 64% 30.31 in 9.0 mi South 5.8 mph - N/A   Overcast